SNUGLITE 2
1 52899U 22065F   26178.34888003  .00000941  00000-0  18727-3 0  9998
2 52899  98.2211 323.1618 0007295   2.5131 357.6106 14.64365038212482
UmKA 1 (RS40S)
1 57172U 23091G   26178.48934323  .00006099  00000-0  27801-3 0  9992
2 57172  97.5051 237.1470 0014266  85.9031 274.3834 15.20933191165579
CubeBel-2 (EU11S)
1 57175U 23091K   26178.52222600  .00013727  00000-0  48290-3 0  9999
2 57175  97.5054 241.8322 0011051  83.2200 277.0297 15.29405966165881
RS-38S
1 57189U 23091Z   26178.50471225  .00016698  00000-0  47262-3 0  9999
2 57189  97.5095 248.1980 0007458  45.5240 314.6613 15.36344830166276
SONATE-2
1 59112U 24043Q   26178.40762674  .00044869  00000-0  56515-3 0  9997
2 59112  97.5532 329.4362 0007289 162.2172 197.9340 15.59478469129482
GRBBeta
1 60237U 24128C   26178.44057435  .00003398  00000-0  23825-3 0  9997
2 60237  61.9879 180.2904 0039353 136.7646 223.6547 15.06698062107819
Curium One
1 60242U 24128H   26178.54908087  .00006742  00000-0  38953-3 0  9996
2 60242  61.9764 169.0705 0038646 132.5806 227.8561 15.12634613108023
ROBUSTA-3A
1 60243U 24128J   26178.51965705  .00005269  00000-0  31451-3 0  9993
2 60243  61.9840 171.7016 0040027 130.3228 230.1376 15.11768449107983
CatSat
1 60246U 24125J   26178.53642624  .00061254  00000-0  74901-3 0  9990
2 60246  97.2079  31.1799 0022300 143.7570 216.5203 15.59912706109002
HYPERVIEW-1G (RS66S)
1 61772U 24199AP  26177.77067532  .00148755  00000-0  84483-3 0  9998
2 61772  97.2856  57.9913 0005987 186.8100 173.3087 15.78571118136181
AO-123
1 61781U 24199AY  26178.52502647  .00007531  00000-0  21794-3 0  9995
2 61781  97.2994  47.1032 0011871 271.4691  88.5193 15.35817519135514
JINJUSat 1B
1 63210U 25052A   26178.19389660  .00019134  00000-0  58653-3 0  9990
2 63210  97.4003  74.9642 0005116  69.5880 290.5912 15.33812153 71635
NUSHSAT 1
1 63211U 25052B   26178.48181601  .00020953  00000-0  59200-3 0  9998
2 63211  97.3978  75.8538 0004860  74.4736 285.7044 15.36365936 71727
TEVEL2-4
1 63213U 25052D   26178.22278874  .00019955  00000-0  58985-3 0  9990
2 63213  97.3900  74.6325 0004820  85.3074 274.8720 15.34955968 71657
TEVEL2-5
1 63214U 25052E   26178.50522470  .00017948  00000-0  53379-3 0  9998
2 63214  97.3899  74.8604 0004802  85.5569 274.6223 15.34786157 71690
TEVEL2-6
1 63215U 25052F   26178.25699216  .00020324  00000-0  60478-3 0  9994
2 63215  97.3903  74.5963 0004643  86.9832 273.1942 15.34743866 71651
TEVEL2-1
1 63217U 25052H   26178.22433366  .00018970  00000-0  57458-3 0  9993
2 63217  97.3871  74.1759 0004996  94.4509 265.7304 15.34194637 71635
TEVEL2-3
1 63218U 25052J   26178.47948772  .00017515  00000-0  52972-3 0  9993
2 63218  97.3878  74.4543 0004879  94.4776 265.7024 15.34260298 71673
TEVEL2-2
1 63219U 25052K   26178.22458634  .00019407  00000-0  58752-3 0  9994
2 63219  97.3873  74.1789 0005009  94.7391 265.4424 15.34205693 71635
TEVEL2-9
1 63237U 25052AD  26178.21505297  .00017853  00000-0  57551-3 0  9990
2 63237  97.3934  73.5229 0008294 104.2052 256.0111 15.32198035 71565
TEVEL2-7
1 63238U 25052AE  26178.51919280  .00016288  00000-0  53023-3 0  9996
2 63238  97.3939  73.7382 0008364 103.6782 256.5391 15.31903261 71608
TEVEL2-8
1 63239U 25052AF  26177.22110573  .00017980  00000-0  58597-3 0  9993
2 63239  97.3937  72.4192 0008385 107.6731 252.5427 15.31844407 71403
SPIRONE
1 66657U 25274H   26178.30426161  .00002181  00000-0  21189-3 0  9993
2 66657  97.7481 107.4511 0011715 349.1949  10.9018 14.93587633 31733
K-HERO
1 66660U 25274L   26178.30603595  .00001953  00000-0  18832-3 0  9992
2 66660  97.7488 107.6213 0013714 352.0873   8.0128 14.94000791 31742
SNUGLITE-III DURI
1 66661U 25274M   26178.36053455  .00002158  00000-0  20726-3 0  9996
2 66661  97.7486 107.6957 0014335 352.5433   7.5572 14.94037208 31754
SAKHACUBE-CHOLBON
1 67290U 25313AU  26178.13410174  .00010024  00000-0  40334-3 0  9997
2 67290  97.3939 253.0450 0007960 327.4658  32.6089 15.25058671 27492
RS95S (QMR-KWT-2)
1 67291U 25313AV  26178.44074661  .00014589  00000-0  55992-3 0  9995
2 67291  97.3929 253.5447 0007419 322.4781  37.5939 15.26548052 27557
Ten-Koh2
1 68261U 25241B   26178.50801804  .00004558  00000-0  19917-3 0  9999
2 68261  51.6681 270.5089 0005332 172.4787 187.6272 15.24006987 16486
JACK-002
1 68417U 26067B   26178.43488475  .00007484  00000-0  35548-3 0  9995
2 68417  97.4566 136.8991 0001088 165.5043 194.6223 15.19514436 13508
DISCO 2
1 68431U 26067R   26177.86532791  .00008418  00000-0  40288-3 0  9993
2 68431  97.4595 136.3248 0001728  27.6762 332.4565 15.19213502 13414
HADES-SA (SpinnyONE)
1 68446U 26067AG  26178.36509794  .00020499  00000-0  96874-3 0  9997
2 68446  97.4405 136.5107 0008622  55.7869 304.4181 15.19400901 13476
PARUS-6U1
1 68456U 26067AS  26178.40868363  .00005906  00000-0  29678-3 0  9997
2 68456  97.4552 136.6154 0006798  44.6983 315.4797 15.17621770 13482
SAL-E
1 68458U 26067AU  26178.40239378  .00007954  00000-0  39523-3 0  9992
2 68458  97.4477 136.5392 0007363  53.0042 307.1865 15.17900190 13482
FSI-SAT 2
1 68792U 26088A   26178.37923831  .00004389  00000-0  29717-3 0  9999
2 68792  97.5065 327.3832 0015662  75.0477 285.2483 15.06910670  9820
OrigamiSat 2
1 68795U 26088D   26178.37514654  .00013244  00000-0  83943-3 0  9992
2 68795  97.5068 327.5459 0015482  48.0038 312.2507 15.08957993  9836
ARICA 2
1 68796U 26088E   26178.37694801  .00004606  00000-0  29845-3 0  9999
2 68796  97.5062 327.5307 0016481  47.6770 312.5852 15.08503365  9837
WASEDA-SAT-ZERO-II
1 68797U 26088F   26178.37111860  .00006868  00000-0  43996-3 0  9994
2 68797  97.5061 327.5370 0016177  47.3541 312.9048 15.08750556  9839
MANGARO-II-Piscus
1 68798U 26088G   26178.36073645  .00004640  00000-0  29730-3 0  9998
2 68798  97.5073 327.5587 0019971  49.6928 310.6042 15.08855005  9836
IO-86
1 40931U          25360.30710720  .00000000  00000-0  12800-3 0    00
2 40931   6.0006 332.5373 0012733 338.8432   8.1437 14.79075515    01
LILIUM-4                
1 71922C 26067AC  26089.50133053 -.00014632  00000+0 -74472-3 0    04
2 71922  97.4497  49.1617 0004341   5.9603 355.7042 15.16896692    16
